Location: Altenst�hlen
(53.5567°N, 8.9425°E)
Time: 02:37:01
(UTC+00:00)

STARLINK-57 - Pass Details

Date: 23 October 2019
Orbit: 548 x 551 km, 53.0° (Epoch: 20 November)

Event Time Altitude Azimuth Distance (km) Brightness Sun altitude
Rises 17:16:29 0° 272° (W) 2,719 9.3 -10.4°
Reaches altitude 10° 17:18:43 10° 271° (W) 1,825 7.9 -10.7°
Maximum altitude 17:22:52 84° 185° (S) 559 3.6 -11.3°
Enters shadow 17:25:58 17° 97° (E) 1,417 5.1 -11.8°
